[[{"header":{"parameterUnit":"m.s-1","parameterCategory":1,"la1":30.2991,"la2":30.254,"lo1":-89.0895,"lo2":-89.0444,"dy":0.0017,"dx":0.0017,"nx":28,"ny":28,"refTime":"2025-04-06T21:00:00:Z","depth":0,"parameterNumber":2,"parameterNumberName":"U-component_of_WINDS"},"data":[0,0,0,0,0,0,0,0,0,0,0,0,0,0,0,0,0,0,0,0,0,0,0,0,0,0,0,0,0,0,0,0,0,0,0,0,0,0,0,0,0,0,0,0,0,0,0,0,0,0,0,0,0,0,0,0,0,0,1.5379,1.538,0,1.5475,1.5476,1.5477,1.5512,1.5512,1.5511,1.5511,1.5614,1.5617,1.562,0,0,0,0,0,0,0,0,0,0,0,0,0,1.5234,1.5237,1.5379,1.538,1.5381,1.5475,1.5476,1.5477,1.5512,1.5512,1.5511,1.5511,1.5613,1.5616,1.562,0,0,0,0,0,0,0,0,0,0,0,0,0,1.531,1.5237,1.5379,1.541,1.5413,1.5474,1.5476,1.5478,1.5512,1.5511,1.5511,1.5511,1.5612,1.5616,1.5621,1.5659,0,0,1.5635,1.5637,0,0,0,0,0,0,0,0,1.5306,1.5316,1.5404,1.5408,1.5412,1.5481,1.5463,1.5539,1.5512,1.5475,1.5511,1.551,1.557,1.5578,1.5598,1.5664,1.5668,1.5635,1.5638,1.564,1.5641,0,0,0,0,0,0,0,1.5301,1.5312,1.5417,1.5405,1.541,1.5422,1.5432,1.5477,1.5524,1.5478,1.5481,1.5491,1.5572,1.5593,1.56,1.567,1.5635,1.5639,1.5642,1.5644,1.5778,1.5779,0,0,0,0,0,0,1.5289,1.5307,1.5414,1.542,1.5357,1.5425,1.5436,1.5459,1.5524,1.5533,1.5492,1.5493,1.5585,1.5595,1.5604,1.5656,1.564,1.5644,1.5647,1.5777,1.5778,1.5779,0,0,0,0,0,0,1.5286,1.5298,1.541,1.5364,1.5379,1.5428,1.5453,1.5461,1.5482,1.5534,1.5543,1.5503,1.5585,1.5597,1.5646,1.566,1.5646,1.565,1.5776,1.5778,1.5779,1.5757,0,0,0,0,0,0,1.5282,1.5297,1.531,1.5364,1.5382,1.5448,1.5454,1.5464,1.5489,1.5491,1.5548,1.5557,1.5586,1.5639,1.565,1.5666,1.5654,1.5775,1.5777,1.5778,1.5757,1.5758,1.5758,0,0,0,0,0,1.5276,1.53,1.531,1.5323,1.5398,1.5448,1.5458,1.549,1.549,1.5505,1.554,1.5555,1.5657,1.5643,1.5657,1.5674,1.5774,1.5776,1.5778,1.5757,1.5758,1.5758,0,0,0,0,0,0,1.5246,1.5308,1.5319,1.5361,1.5399,1.5454,1.5473,1.5489,1.5529,1.553,1.557,1.5582,1.5628,1.5656,1.564,1.5717,1.5717,1.5722,1.5696,1.5697,1.5698,1.569,1.5658,0,0,0,0,0,1.5245,1.5278,1.5331,1.5362,1.5381,1.5424,1.5447,1.5468,1.551,1.5527,1.5564,1.5606,1.5648,1.5675,1.5716,1.5762,1.5777,1.5781,1.5782,1.5782,1.5785,1.5816,1.5819,1.5785,1.5785,1.5785,0,0,1.5241,1.5279,1.5297,1.5357,1.5389,1.5426,1.5437,1.5474,1.5502,1.5533,1.558,1.5611,1.566,1.5709,1.5732,1.5733,1.5798,1.5784,1.5784,1.5787,1.5818,1.5821,1.5824,1.5786,1.5786,1.5786,0,0,1.5253,1.5284,1.5315,1.5348,1.5396,1.5425,1.5433,1.5487,1.5507,1.5556,1.5581,1.5617,1.5687,1.5722,1.575,1.5781,1.5798,1.5794,1.5796,1.5826,1.5828,1.5831,1.5844,1.5848,1.5797,1.5797,1.5797,0,1.5243,1.5296,1.533,1.5366,1.5393,1.5423,1.5457,1.5488,1.5548,1.5567,1.5568,1.566,1.5695,1.5754,1.5762,1.5782,1.5795,1.5786,1.5825,1.5828,1.5831,1.5844,1.5848,1.5796,1.5796,1.5796,1.5797,0,1.5282,1.532,1.534,1.5396,1.5426,1.5461,1.5503,1.553,1.5551,1.5581,1.5633,1.5677,1.5729,1.5745,1.5765,1.5809,1.5808,1.5817,1.5817,1.5833,1.5846,1.5851,1.5795,1.5795,1.5796,1.5796,0,0,1.5274,1.5352,1.5359,1.5386,1.5444,1.5475,1.5514,1.5564,1.5587,1.563,1.5665,1.5726,1.5736,1.5767,1.5792,1.5818,1.5843,1.5824,1.5826,1.5827,1.5897,1.5889,1.5894,1.5856,1.5857,1.5858,1.5893,0,1.5295,1.5361,1.5395,1.5449,1.5486,1.5518,1.5552,1.5593,1.5624,1.5663,1.5698,1.5741,1.5749,1.5769,1.5796,1.5834,1.5858,1.5832,1.5891,1.5893,1.5876,1.5901,1.5892,1.5923,1.5898,1.5899,1.5899,0,1.5325,1.5367,1.5424,1.5481,1.5498,1.5528,1.5579,1.5614,1.5664,1.5685,1.5722,1.5747,1.5793,1.5793,1.5858,1.584,1.5868,1.5891,1.5893,1.5899,1.5896,1.5908,1.5933,1.5938,1.5907,1.5907,1.5906,0,1.5315,1.5386,1.543,1.5453,1.552,1.5541,1.557,1.5619,1.5649,1.5695,1.5715,1.5766,1.5795,1.5836,1.5876,1.5871,1.5939,1.5941,1.596,1.5959,1.5971,1.597,1.6002,1.599,1.599,1.5989,1.5989,0,1.5333,1.5367,1.5426,1.5453,1.5494,1.5535,1.5576,1.5608,1.5652,1.5689,1.5721,1.5755,1.5807,1.5849,1.5882,1.5933,1.5946,1.5966,1.5974,1.5963,1.596,1.598,1.5979,1.5991,1.599,1.599,1.599,0,1.5327,1.5368,1.5418,1.5479,1.5496,1.5523,1.5577,1.5606,1.5641,1.5687,1.5701,1.5755,1.5807,1.5852,1.592,1.5943,1.5996,1.6006,1.5978,1.5983,1.6,1.5998,1.6045,1.6054,1.6035,1.6035,1.6036,0,1.5335,1.5363,1.5427,1.5453,1.5482,1.5523,1.5554,1.5598,1.5629,1.569,1.5713,1.5767,1.5812,1.5895,1.5942,1.5996,1.6008,1.6021,1.6016,1.6005,1.6009,1.6007,1.6011,1.6021,1.6021,1.602,1.602,0,1.5347,1.5366,1.5408,1.5458,1.5493,1.5535,1.5578,1.5599,1.5651,1.5685,1.5738,1.5773,1.5844,1.5899,1.5959,1.5993,1.6017,1.6022,1.603,1.6018,1.6001,1.6011,1.5979,1.602,1.602,1.602,1.602,1.602,1.5349,1.5375,1.5425,1.5472,1.5509,1.555,1.5581,1.562,1.5664,1.5724,1.5748,1.5803,1.5857,1.594,1.5975,1.6021,1.6025,1.6035,1.6038,1.604,1.6039,1.5994,1.6033,1.6033,1.6033,1.6033,1.6033,0,1.5362,1.5396,1.5439,1.5498,1.5536,1.5554,1.5605,1.5636,1.5682,1.573,1.5775,1.5838,1.5892,1.5946,1.6004,1.6031,1.6043,1.6044,1.6043,1.6051,1.6031,1.6019,1.6033,1.6033,1.6033,1.6033,1.6033,1.6033,1.5373,1.542,1.5446,1.5514,1.5549,1.5601,1.5629,1.5668,1.5707,1.5775,1.582,1.5854,1.5906,1.5969,1.6021,1.6036,1.6056,1.6054,1.6072,1.6052,1.6052,1.6051,1.604,1.6058,1.6058,1.6088,1.6088,1.6088]},{"header":{"parameterUnit":"m.s-1","parameterCategory":1,"la1":30.2991,"la2":30.254,"lo1":-89.0895,"lo2":-89.0444,"dy":0.0017,"dx":0.0017,"nx":28,"ny":28,"refTime":"2025-04-06T21:00:00:Z","depth":0,"parameterNumber":3,"parameterNumberName":"V-component_of_WINDS"},"data":[0,0,0,0,0,0,0,0,0,0,0,0,0,0,0,0,0,0,0,0,0,0,0,0,0,0,0,0,0,0,0,0,0,0,0,0,0,0,0,0,0,0,0,0,0,0,0,0,0,0,0,0,0,0,0,0,0,0,-4.2887,-4.2888,0,-4.2958,-4.2959,-4.296,-4.2943,-4.2942,-4.294,-4.2939,-4.3013,-4.3016,-4.3019,0,0,0,0,0,0,0,0,0,0,0,0,0,-4.2739,-4.2742,-4.2887,-4.2888,-4.2889,-4.2958,-4.2959,-4.296,-4.2943,-4.2942,-4.294,-4.2939,-4.3012,-4.3016,-4.3019,0,0,0,0,0,0,0,0,0,0,0,0,0,-4.2806,-4.2743,-4.2887,-4.2889,-4.289,-4.2958,-4.2959,-4.296,-4.2944,-4.2942,-4.294,-4.2938,-4.301,-4.3015,-4.302,-4.309,0,0,-4.3035,-4.3037,0,0,0,0,0,0,0,0,-4.2802,-4.2811,-4.2888,-4.2889,-4.289,-4.294,-4.2934,-4.3004,-4.2944,-4.2923,-4.2939,-4.2937,-4.299,-4.2997,-4.3014,-4.3094,-4.3097,-4.3035,-4.3038,-4.304,-4.3041,0,0,0,0,0,0,0,-4.2798,-4.2808,-4.2915,-4.2889,-4.289,-4.2887,-4.2894,-4.2947,-4.2967,-4.2925,-4.2924,-4.2933,-4.299,-4.301,-4.3016,-4.3098,-4.3035,-4.3039,-4.3042,-4.3044,-4.3241,-4.3243,0,0,0,0,0,0,-4.2792,-4.2805,-4.2913,-4.2917,-4.284,-4.2891,-4.2899,-4.2926,-4.2967,-4.2971,-4.2934,-4.2931,-4.3002,-4.301,-4.3018,-4.3104,-4.304,-4.3045,-4.3047,-4.3238,-4.3241,-4.3244,0,0,0,0,0,0,-4.2789,-4.2802,-4.291,-4.2861,-4.2874,-4.2896,-4.2926,-4.2928,-4.2947,-4.2974,-4.2977,-4.295,-4.3001,-4.3012,-4.3073,-4.3107,-4.3047,-4.3051,-4.3236,-4.3239,-4.3242,-4.3276,0,0,0,0,0,0,-4.2785,-4.2801,-4.2827,-4.2861,-4.2877,-4.2963,-4.2928,-4.2931,-4.2956,-4.2953,-4.2989,-4.2994,-4.3,-4.3066,-4.3078,-4.3112,-4.3055,-4.3233,-4.3237,-4.3241,-4.3272,-4.3281,-4.3288,0,0,0,0,0,-4.2779,-4.2834,-4.2829,-4.2842,-4.291,-4.2965,-4.2974,-4.298,-4.2958,-4.2986,-4.3003,-4.2992,-4.3101,-4.3072,-4.3085,-4.3122,-4.323,-4.3236,-4.3241,-4.3269,-4.3279,-4.3288,0,0,0,0,0,0,-4.2803,-4.2838,-4.2833,-4.29,-4.293,-4.2962,-4.2996,-4.299,-4.3027,-4.3023,-4.3029,-4.3038,-4.31,-4.3117,-4.3084,-4.3193,-4.3163,-4.3171,-4.318,-4.3189,-4.3197,-4.3191,-4.3059,0,0,0,0,0,-4.2816,-4.2857,-4.2886,-4.2942,-4.2957,-4.2974,-4.2998,-4.3001,-4.3032,-4.3044,-4.3065,-4.3096,-4.3137,-4.3164,-4.3204,-4.3275,-4.3283,-4.3307,-4.3314,-4.3321,-4.3328,-4.3368,-4.3379,-4.3261,-4.3261,-4.3261,0,0,-4.2843,-4.2868,-4.2893,-4.2948,-4.2971,-4.3013,-4.2985,-4.3031,-4.3063,-4.3051,-4.311,-4.3127,-4.3162,-4.3229,-4.326,-4.3245,-4.3362,-4.3327,-4.3332,-4.3336,-4.3374,-4.3385,-4.3395,-4.3264,-4.3264,-4.3263,0,0,-4.2915,-4.2937,-4.2987,-4.3011,-4.3046,-4.3058,-4.307,-4.3103,-4.3114,-4.3174,-4.3166,-4.3205,-4.3275,-4.3301,-4.3323,-4.3406,-4.3398,-4.3419,-4.3459,-4.3498,-4.3507,-4.3515,-4.3546,-4.3556,-4.3425,-4.3426,-4.3426,0,-4.2944,-4.3008,-4.3013,-4.3061,-4.3085,-4.3077,-4.3128,-4.3151,-4.3198,-4.3215,-4.3198,-4.3288,-4.331,-4.3384,-4.3404,-4.3422,-4.3437,-4.3414,-4.3505,-4.3513,-4.3521,-4.355,-4.3562,-4.3428,-4.3428,-4.3427,-4.3427,0,-4.3043,-4.3087,-4.3123,-4.3168,-4.3197,-4.3246,-4.326,-4.3288,-4.3289,-4.3302,-4.3364,-4.3391,-4.3436,-4.3454,-4.3455,-4.3528,-4.3518,-4.3503,-4.3473,-4.3535,-4.3562,-4.3573,-4.3431,-4.343,-4.343,-4.3429,0,0,-4.313,-4.3179,-4.3192,-4.3213,-4.3252,-4.3287,-4.3336,-4.338,-4.3404,-4.3437,-4.3479,-4.354,-4.3527,-4.3552,-4.3556,-4.359,-4.3655,-4.3571,-4.3572,-4.3587,-4.3739,-4.375,-4.3763,-4.3651,-4.3653,-4.3654,-4.3736,0,-4.3206,-4.3291,-4.3299,-4.3376,-4.3417,-4.3411,-4.3454,-4.3483,-4.3497,-4.3535,-4.3551,-4.3594,-4.3573,-4.3588,-4.3622,-4.364,-4.3686,-4.3634,-4.369,-4.3692,-4.3682,-4.3777,-4.3788,-4.3864,-4.3747,-4.3749,-4.375,0,-4.3305,-4.3341,-4.3422,-4.3456,-4.3474,-4.3512,-4.3554,-4.359,-4.3623,-4.3631,-4.366,-4.366,-4.3712,-4.368,-4.3751,-4.3716,-4.374,-4.3753,-4.3756,-4.3761,-4.3725,-4.3785,-4.3888,-4.39,-4.3767,-4.3765,-4.3764,0,-4.3361,-4.343,-4.3488,-4.3506,-4.3547,-4.3574,-4.3593,-4.3624,-4.3651,-4.3687,-4.3705,-4.3747,-4.3771,-4.3804,-4.3816,-4.3791,-4.3887,-4.3856,-4.3896,-4.3896,-4.3917,-4.3915,-4.4025,-4.3932,-4.3931,-4.3931,-4.3931,0,-4.3444,-4.3495,-4.3514,-4.3549,-4.3606,-4.3614,-4.367,-4.3688,-4.3716,-4.3755,-4.3753,-4.379,-4.3803,-4.3843,-4.3852,-4.3911,-4.3922,-4.393,-4.3932,-4.3931,-4.393,-4.3946,-4.3941,-4.3934,-4.3934,-4.3933,-4.3932,0,-4.3517,-4.3531,-4.3594,-4.3628,-4.3638,-4.3678,-4.3708,-4.3743,-4.3757,-4.3807,-4.382,-4.3842,-4.3889,-4.3904,-4.3961,-4.3967,-4.4036,-4.4033,-4.4025,-4.4025,-4.4065,-4.4061,-4.4189,-4.4207,-4.4101,-4.4102,-4.4103,0,-4.3569,-4.3608,-4.3646,-4.3672,-4.3692,-4.3734,-4.3761,-4.3771,-4.38,-4.3842,-4.3872,-4.3918,-4.3956,-4.4032,-4.4054,-4.4098,-4.4096,-4.4138,-4.4103,-4.4101,-4.4098,-4.4096,-4.41,-4.4145,-4.4146,-4.4147,-4.4148,0,-4.3661,-4.3666,-4.3705,-4.3747,-4.3779,-4.3813,-4.3845,-4.3867,-4.3882,-4.3915,-4.3962,-4.3992,-4.405,-4.4097,-4.4142,-4.4162,-4.4158,-4.4159,-4.4171,-4.417,-4.4163,-4.4168,-4.4043,-4.4156,-4.4155,-4.4154,-4.4154,-4.4154,-4.3725,-4.3759,-4.3792,-4.3836,-4.3861,-4.3892,-4.3927,-4.3945,-4.3985,-4.4033,-4.4037,-4.4089,-4.4123,-4.4183,-4.4206,-4.4248,-4.4236,-4.4252,-4.4257,-4.4261,-4.4265,-4.4156,-4.4256,-4.4256,-4.4255,-4.4255,-4.4255,0,-4.3817,-4.3838,-4.3878,-4.3923,-4.3958,-4.3951,-4.3987,-4.4016,-4.4062,-4.4094,-4.4131,-4.4187,-4.4233,-4.4259,-4.4305,-4.4334,-4.4333,-4.4346,-4.4344,-4.4349,-4.4272,-4.4258,-4.4345,-4.4345,-4.4345,-4.4345,-4.4345,-4.4345,-4.3869,-4.3927,-4.3936,-4.4008,-4.4028,-4.4079,-4.41,-4.4129,-4.4155,-4.4217,-4.4255,-4.4271,-4.4301,-4.435,-4.4392,-4.4398,-4.4416,-4.443,-4.4435,-4.4363,-4.4354,-4.4345,-4.4332,-4.4433,-4.4433,-4.4509,-4.4509,-4.451]}]]